Time,TemperatureF,DewpointF,PressureIn,WindDirection,WindDirectionDegrees,WindSpeedMPH,WindSpeedGustMPH,Humidity,HourlyPrecipIn,Conditions,Clouds,dailyrainin,SoftwareType,DateUTC
2013-05-19 00:00:00,28.5,30.1,100.00,North,0,5.0,22.0,78,0.01,,---,0.01,VWS V14.01,2013-05-19 08:00:00,
2013-05-19 00:02:00,25.4,8.0,30.33,West,278,2.0,2.0,47,0.00,,---,0.00,VWS V14.01,2013-05-19 08:02:00,
2013-05-19 00:07:00,25.3,7.9,30.33,WNW,290,0.0,2.0,47,0.00,,---,0.00,VWS V14.01,2013-05-19 08:07:00,
2013-05-19 00:12:00,25.1,8.2,30.33,WNW,290,0.0,2.0,48,0.00,,---,0.00,VWS V14.01,2013-05-19 08:12:00,
2013-05-19 00:17:00,24.9,8.0,30.34,WNW,290,0.0,3.0,48,0.00,,---,0.00,VWS V14.01,2013-05-19 08:17:00,
2013-05-19 00:22:00,24.8,8.4,30.34,WNW,290,0.0,3.0,49,0.00,,---,0.00,VWS V14.01,2013-05-19 08:22:00,
2013-05-19 00:27:00,24.6,8.2,30.34,WNW,290,1.0,3.0,49,0.00,,---,0.00,VWS V14.01,2013-05-19 08:27:00,
2013-05-19 00:30:00,28.5,30.1,100.00,North,1,9.0,21.0,78,0.01,,---,0.01,VWS V14.01,2013-05-19 08:30:00,
2013-05-19 00:32:00,24.5,8.5,30.34,WNW,290,0.0,0.0,50,0.00,,---,0.00,VWS V14.01,2013-05-19 08:32:00,
2013-05-19 00:37:00,24.4,8.0,30.34,WNW,290,0.0,2.0,49,0.00,,---,0.00,VWS V14.01,2013-05-19 08:37:00,
2013-05-19 00:42:00,24.3,7.9,30.35,WNW,290,0.0,2.0,49,0.00,,---,0.00,VWS V14.01,2013-05-19 08:42:00,
2013-05-19 00:47:00,24.2,7.8,30.35,WNW,290,0.0,3.0,49,0.00,,---,0.00,VWS V14.01,2013-05-19 08:47:00,
2013-05-19 00:52:00,24.1,8.2,30.35,WNW,302,0.0,4.0,50,0.00,,---,0.00,VWS V14.01,2013-05-19 08:52:00,
2013-05-19 00:57:00,24.2,7.8,30.35,West,269,0.0,4.0,49,0.00,,---,0.00,VWS V14.01,2013-05-19 08:57:00,
2013-05-19 01:00:00,28.5,30.1,100.00,North,0,3.0,21.0,78,0.01,,---,0.00,VWS V14.01,2013-05-19 09:00:00,
2013-05-19 01:02:00,24.0,8.1,30.36,WNW,288,0.0,0.0,50,0.00,,---,0.00,VWS V14.01,2013-05-19 09:02:00,
2013-05-19 01:07:00,24.0,8.5,30.36,NW,321,0.0,5.0,51,0.00,,---,0.00,VWS V14.01,2013-05-19 09:07:00,
2013-05-19 01:12:00,23.9,8.0,30.36,NW,321,0.0,5.0,50,0.00,,---,0.00,VWS V14.01,2013-05-19 09:12:00,
2013-05-19 01:17:00,23.9,8.0,30.36,WNW,286,0.0,5.0,50,0.00,,---,0.00,VWS V14.01,2013-05-19 09:17:00,
2013-05-19 01:22:00,23.8,7.9,30.37,WNW,298,0.0,5.0,50,0.00,,---,0.00,VWS V14.01,2013-05-19 09:22:00,
2013-05-19 01:27:00,23.7,7.8,30.37,WNW,298,0.0,5.0,50,0.00,,---,0.00,VWS V14.01,2013-05-19 09:27:00,
2013-05-19 01:30:00,28.5,30.1,100.00,North,1,8.0,21.0,78,0.01,,---,0.00,VWS V14.01,2013-05-19 09:30:00,
2013-05-19 01:32:00,23.6,7.7,30.37,WNW,298,0.0,2.0,50,0.00,,---,0.00,VWS V14.01,2013-05-19 09:32:00,
2013-05-19 01:37:00,23.5,8.1,30.37,WNW,298,0.0,3.0,51,0.00,,---,0.00,VWS V14.01,2013-05-19 09:37:00,
2013-05-19 01:42:00,23.4,7.5,30.38,WNW,298,2.0,3.0,50,0.00,,---,0.00,VWS V14.01,2013-05-19 09:42:00,
2013-05-19 01:47:00,23.3,7.9,30.38,West,273,1.0,6.0,51,0.00,,---,0.00,VWS V14.01,2013-05-19 09:47:00,
2013-05-19 01:51:00,23.3,7.9,30.38,NNW,330,0.0,6.0,51,0.00,,---,0.00,VWS V14.01,2013-05-19 09:51:00,
2013-05-19 01:56:00,23.3,7.4,30.39,West,272,0.0,6.0,50,0.00,,---,0.00,VWS V14.01,2013-05-19 09:56:00,
2013-05-19 02:00:00,28.5,30.1,100.00,North,3,12.0,22.0,78,0.01,,---,0.00,VWS V14.01,2013-05-19 10:00:00,
2013-05-19 02:01:00,23.2,7.8,30.39,West,277,0.0,0.0,51,0.00,,---,0.00,VWS V14.01,2013-05-19 10:01:00,
2013-05-19 02:06:00,23.1,7.7,30.39,NW,306,2.0,2.0,51,0.00,,---,0.00,VWS V14.01,2013-05-19 10:06:00,
2013-05-19 02:11:00,23.1,7.7,30.39,West,278,1.0,4.0,51,0.00,,---,0.00,VWS V14.01,2013-05-19 10:11:00,
2013-05-19 02:16:00,23.0,7.6,30.40,West,273,0.0,4.0,51,0.00,,---,0.00,VWS V14.01,2013-05-19 10:16:00,
2013-05-19 02:21:00,23.0,7.6,30.40,WNW,295,0.0,4.0,51,0.00,,---,0.00,VWS V14.01,2013-05-19 10:21:00,
2013-05-19 02:26:00,22.9,7.5,30.40,West,261,0.0,5.0,51,0.00,,---,0.00,VWS V14.01,2013-05-19 10:26:00,
2013-05-19 02:30:00,28.5,30.1,100.00,North,1,8.0,21.0,78,0.01,,---,0.00,VWS V14.01,2013-05-19 10:30:00,
2013-05-19 02:31:00,22.8,7.4,30.40,WNW,298,0.0,2.0,51,0.00,,---,0.00,VWS V14.01,2013-05-19 10:31:00,
2013-05-19 02:36:00,22.7,7.3,30.40,WNW,287,0.0,3.0,51,0.00,,---,0.00,VWS V14.01,2013-05-19 10:36:00,
2013-05-19 02:41:00,22.6,7.6,30.41,WNW,288,1.0,3.0,52,0.00,,---,0.00,VWS V14.01,2013-05-19 10:41:00,
2013-05-19 02:46:00,22.4,7.4,30.41,WNW,288,0.0,3.0,52,0.00,,---,0.00,VWS V14.01,2013-05-19 10:46:00,
2013-05-19 02:51:00,22.3,7.4,30.41,NW,318,2.0,4.0,52,0.00,,---,0.00,VWS V14.01,2013-05-19 10:51:00,
2013-05-19 02:56:00,22.3,7.8,30.41,NW,318,1.0,4.0,53,0.00,,---,0.00,VWS V14.01,2013-05-19 10:56:00,
2013-05-19 03:00:00,28.5,30.1,100.00,North,0,6.0,21.0,78,0.01,,---,0.00,VWS V14.01,2013-05-19 11:00:00,
2013-05-19 03:01:00,22.2,7.7,30.42,West,259,3.0,3.0,53,0.00,,---,0.00,VWS V14.01,2013-05-19 11:01:00,
2013-05-19 03:06:00,22.1,7.6,30.42,NNW,331,1.0,3.0,53,0.00,,---,0.00,VWS V14.01,2013-05-19 11:06:00,
2013-05-19 03:11:00,22.0,7.5,30.42,NNW,331,0.0,3.0,53,0.00,,---,0.00,VWS V14.01,2013-05-19 11:11:00,
2013-05-19 03:16:00,21.9,7.4,30.42,West,267,0.0,3.0,53,0.00,,---,0.00,VWS V14.01,2013-05-19 11:16:00,
2013-05-19 03:21:00,21.9,7.4,30.42,West,260,0.0,4.0,53,0.00,,---,0.00,VWS V14.01,2013-05-19 11:21:00,
2013-05-19 03:26:00,21.8,7.7,30.42,NW,312,0.0,4.0,54,0.00,,---,0.00,VWS V14.01,2013-05-19 11:26:00,
2013-05-19 03:30:00,28.5,30.1,100.00,North,1,6.0,21.0,79,0.01,,---,0.00,VWS V14.01,2013-05-19 11:30:00,
2013-05-19 03:31:00,21.7,7.6,30.42,NW,312,2.0,2.0,54,0.00,,---,0.00,VWS V14.01,2013-05-19 11:31:00,
2013-05-19 03:36:00,21.7,7.6,30.43,NW,312,0.0,3.0,54,0.00,,---,0.00,VWS V14.01,2013-05-19 11:36:00,
2013-05-19 03:41:00,21.5,7.4,30.43,NW,315,2.0,3.0,54,0.00,,---,0.00,VWS V14.01,2013-05-19 11:41:00,
2013-05-19 03:46:00,21.4,7.3,30.43,NW,316,1.0,3.0,54,0.00,,---,0.00,VWS V14.01,2013-05-19 11:46:00,
2013-05-19 03:51:00,21.3,7.3,30.43,NW,316,0.0,3.0,54,0.00,,---,0.00,VWS V14.01,2013-05-19 11:51:00,
2013-05-19 03:56:00,21.3,7.7,30.44,NW,318,0.0,3.0,55,0.00,,---,0.00,VWS V14.01,2013-05-19 11:56:00,
2013-05-19 04:00:00,28.5,30.1,100.00,North,0,2.0,21.0,79,0.01,,---,0.00,VWS V14.01,2013-05-19 12:00:00,
2013-05-19 04:01:00,21.2,7.2,30.44,NW,317,0.0,3.0,54,0.00,,---,0.00,VWS V14.01,2013-05-19 12:01:00,
2013-05-19 04:06:00,21.3,7.3,30.44,NW,315,0.0,2.0,54,0.00,,---,0.00,VWS V14.01,2013-05-19 12:06:00,
2013-05-19 04:11:00,21.3,7.3,30.44,WNW,292,0.0,2.0,54,0.00,,---,0.00,VWS V14.01,2013-05-19 12:11:00,
2013-05-19 04:16:00,21.3,7.3,30.45,WNW,302,3.0,3.0,54,0.00,,---,0.00,VWS V14.01,2013-05-19 12:16:00,
2013-05-19 04:21:00,21.3,7.7,30.45,WNW,302,0.0,3.0,55,0.00,,---,0.00,VWS V14.01,2013-05-19 12:21:00,
2013-05-19 04:26:00,21.3,7.3,30.45,WNW,290,2.0,3.0,54,0.00,,---,0.00,VWS V14.01,2013-05-19 12:26:00,
2013-05-19 04:30:00,28.5,30.1,100.00,North,1,7.0,21.0,79,0.01,,---,0.00,VWS V14.01,2013-05-19 12:30:00,
2013-05-19 04:31:00,21.3,7.3,30.45,WNW,290,0.0,3.0,54,0.00,,---,0.00,VWS V14.01,2013-05-19 12:31:00,
2013-05-19 04:36:00,21.2,6.8,30.46,WNW,298,0.0,3.0,53,0.00,,---,0.00,VWS V14.01,2013-05-19 12:36:00,
2013-05-19 04:41:00,21.2,7.2,30.46,WNW,300,0.0,3.0,54,0.00,,---,0.00,VWS V14.01,2013-05-19 12:41:00,
2013-05-19 04:46:00,21.2,6.8,30.46,WNW,298,0.0,3.0,53,0.00,,---,0.00,VWS V14.01,2013-05-19 12:46:00,
2013-05-19 04:51:00,21.1,7.1,30.46,WNW,298,0.0,3.0,54,0.00,,---,0.00,VWS V14.01,2013-05-19 12:51:00,
2013-05-19 04:56:00,20.9,6.9,30.47,WNW,298,0.0,3.0,54,0.00,,---,0.00,VWS V14.01,2013-05-19 12:56:00,
2013-05-19 05:00:00,28.5,30.1,100.00,North,1,10.0,21.0,79,0.02,,---,0.01,VWS V14.01,2013-05-19 13:00:00,
2013-05-19 05:01:00,20.8,6.8,30.47,WNW,298,0.0,3.0,54,0.00,,---,0.00,VWS V14.01,2013-05-19 13:01:00,
2013-05-19 05:06:00,20.7,6.7,30.47,WNW,298,0.0,1.0,54,0.00,,---,0.00,VWS V14.01,2013-05-19 13:06:00,
2013-05-19 05:11:00,20.6,6.6,30.47,WNW,298,0.0,1.0,54,0.00,,---,0.00,VWS V14.01,2013-05-19 13:11:00,
2013-05-19 05:16:00,20.6,6.6,30.48,WNW,300,0.0,3.0,54,0.00,,---,0.00,VWS V14.01,2013-05-19 13:16:00,
2013-05-19 05:21:00,20.5,6.5,30.48,WNW,303,0.0,3.0,54,0.00,,---,0.00,VWS V14.01,2013-05-19 13:21:00,
2013-05-19 05:26:00,20.6,6.6,30.48,WNW,303,0.0,3.0,54,0.00,,---,0.00,VWS V14.01,2013-05-19 13:26:00,
2013-05-19 05:30:00,28.5,30.1,100.00,North,0,4.0,21.0,79,0.02,,---,0.01,VWS V14.01,2013-05-19 13:30:00,
2013-05-19 05:31:00,20.5,6.9,30.48,WNW,303,4.0,4.0,55,0.00,,---,0.00,VWS V14.01,2013-05-19 13:31:00,
2013-05-19 05:36:00,20.4,6.8,30.49,NW,304,0.0,3.0,55,0.00,,---,0.00,VWS V14.01,2013-05-19 13:36:00,
2013-05-19 05:41:00,20.3,6.7,30.49,NW,304,1.0,3.0,55,0.00,,---,0.00,VWS V14.01,2013-05-19 13:41:00,
2013-05-19 05:46:00,20.2,7.0,30.49,West,278,0.0,3.0,56,0.00,,---,0.00,VWS V14.01,2013-05-19 13:46:00,
2013-05-19 05:51:00,20.0,6.8,30.49,WNW,290,0.0,3.0,56,0.00,,---,0.00,VWS V14.01,2013-05-19 13:51:00,
2013-05-19 05:56:00,20.0,6.8,30.49,WNW,290,1.0,3.0,56,0.00,,---,0.00,VWS V14.01,2013-05-19 13:56:00,
2013-05-19 06:00:00,28.5,30.1,100.00,North,0,1.0,21.0,79,0.02,,---,0.01,VWS V14.01,2013-05-19 14:00:00,
2013-05-19 06:01:00,20.0,6.8,30.50,WNW,290,0.0,3.0,56,0.00,,---,0.00,VWS V14.01,2013-05-19 14:01:00,
2013-05-19 06:06:00,20.0,6.4,30.50,NW,304,0.0,3.0,55,0.00,,---,0.00,VWS V14.01,2013-05-19 14:06:00,
2013-05-19 06:11:00,20.1,6.5,30.50,NW,309,2.0,3.0,55,0.00,,---,0.00,VWS V14.01,2013-05-19 14:11:00,
2013-05-19 06:16:00,20.1,6.5,30.50,West,262,1.0,3.0,55,0.00,,---,0.00,VWS V14.01,2013-05-19 14:16:00,
2013-05-19 06:21:00,20.2,6.2,30.50,WNW,282,1.0,3.0,54,0.00,,---,0.00,VWS V14.01,2013-05-19 14:21:00,
2013-05-19 06:26:00,20.2,6.2,30.50,WNW,282,0.0,3.0,54,0.00,,---,0.00,VWS V14.01,2013-05-19 14:26:00,
2013-05-19 06:30:00,28.5,30.1,100.00,North,0,5.0,21.0,79,0.02,,---,0.00,VWS V14.01,2013-05-19 14:30:00,
2013-05-19 06:31:00,20.3,6.7,30.51,WNW,300,1.0,3.0,55,0.00,,---,0.00,VWS V14.01,2013-05-19 14:31:00,
2013-05-19 06:36:00,20.6,6.6,30.51,WNW,300,0.0,1.0,54,0.00,,---,0.00,VWS V14.01,2013-05-19 14:36:00,
2013-05-19 06:41:00,20.8,6.4,30.51,WNW,300,0.0,3.0,53,0.00,,---,0.00,VWS V14.01,2013-05-19 14:41:00,
2013-05-19 06:46:00,20.9,6.5,30.51,WNW,300,1.0,3.0,53,0.00,,---,0.00,VWS V14.01,2013-05-19 14:46:00,
2013-05-19 06:51:00,21.0,6.6,30.52,NW,309,0.0,3.0,53,0.00,,---,0.00,VWS V14.01,2013-05-19 14:51:00,
2013-05-19 06:56:00,21.2,6.3,30.52,NW,310,2.0,3.0,52,0.00,,---,0.00,VWS V14.01,2013-05-19 14:56:00,
2013-05-19 07:00:00,28.5,30.1,100.00,North,0,5.0,21.0,79,0.02,,---,0.00,VWS V14.01,2013-05-19 15:00:00,
2013-05-19 07:01:00,21.3,6.4,30.52,NW,310,1.0,3.0,52,0.00,,---,0.00,VWS V14.01,2013-05-19 15:01:00,
2013-05-19 07:06:00,21.6,7.1,30.52,NW,310,0.0,1.0,53,0.00,,---,0.00,VWS V14.01,2013-05-19 15:06:00,
2013-05-19 07:11:00,21.8,6.5,30.52,NW,310,1.0,2.0,51,0.00,,---,0.00,VWS V14.01,2013-05-19 15:11:00,
2013-05-19 07:16:00,22.1,7.2,30.53,West,263,1.0,2.0,52,0.00,,---,0.00,VWS V14.01,2013-05-19 15:16:00,
2013-05-19 07:21:00,22.4,6.6,30.53,West,281,0.0,3.0,50,0.00,,---,0.00,VWS V14.01,2013-05-19 15:21:00,
2013-05-19 07:26:00,22.8,7.0,30.53,West,281,0.0,3.0,50,0.00,,---,0.00,VWS V14.01,2013-05-19 15:26:00,
2013-05-19 07:30:00,28.5,30.1,100.00,North,0,4.0,21.0,79,0.02,,---,0.00,VWS V14.01,2013-05-19 15:30:00,
2013-05-19 07:31:00,23.1,6.8,30.54,West,281,0.0,3.0,49,0.00,,---,0.00,VWS V14.01,2013-05-19 15:31:00,
2013-05-19 07:35:00,23.4,6.6,30.54,West,265,2.0,3.0,48,0.00,,---,0.00,VWS V14.01,2013-05-19 15:35:00,
2013-05-19 07:40:00,23.6,6.3,30.54,SSW,209,5.0,5.0,47,0.00,,---,0.00,VWS V14.01,2013-05-19 15:40:00,
2013-05-19 07:45:00,23.8,6.1,30.54,NNW,344,1.0,5.0,46,0.00,,---,0.00,VWS V14.01,2013-05-19 15:45:00,
2013-05-19 07:50:00,24.0,6.7,30.54,WNW,287,0.0,5.0,47,0.00,,---,0.00,VWS V14.01,2013-05-19 15:50:00,
2013-05-19 07:55:00,24.3,6.0,30.55,West,277,0.0,5.0,45,0.00,,---,0.00,VWS V14.01,2013-05-19 15:55:00,
2013-05-19 08:00:00,24.5,6.7,30.54,WSW,242,1.0,5.0,46,0.00,,---,0.00,VWS V14.01,2013-05-19 16:00:00,
2013-05-19 08:05:00,24.8,6.5,30.55,WSW,242,0.0,4.0,45,0.00,,---,0.00,VWS V14.01,2013-05-19 16:05:00,
2013-05-19 08:10:00,25.1,6.3,30.55,West,271,0.0,4.0,44,0.00,,---,0.00,VWS V14.01,2013-05-19 16:10:00,
2013-05-19 08:15:00,25.1,5.8,30.55,West,259,0.0,6.0,43,0.00,,---,0.00,VWS V14.01,2013-05-19 16:15:00,
2013-05-19 08:20:00,25.2,5.9,30.55,WNW,302,1.0,6.0,43,0.00,,---,0.00,VWS V14.01,2013-05-19 16:20:00,
2013-05-19 08:25:00,25.5,6.1,30.55,WSW,257,3.0,6.0,43,0.00,,---,0.00,VWS V14.01,2013-05-19 16:25:00,
2013-05-19 08:30:00,25.8,6.4,30.55,WSW,242,2.0,8.0,43,0.00,,---,0.00,VWS V14.01,2013-05-19 16:30:00,
2013-05-19 08:35:00,26.2,6.8,30.56,WSW,250,2.0,3.0,43,0.00,,---,0.00,VWS V14.01,2013-05-19 16:35:00,
2013-05-19 08:40:00,26.4,6.4,30.56,NNW,329,0.0,7.0,42,0.00,,---,0.00,VWS V14.01,2013-05-19 16:40:00,
2013-05-19 08:45:00,26.6,6.1,30.56,NW,307,1.0,9.0,41,0.00,,---,0.00,VWS V14.01,2013-05-19 16:45:00,
2013-05-19 08:50:00,26.8,6.8,30.56,WNW,285,3.0,9.0,42,0.00,,---,0.00,VWS V14.01,2013-05-19 16:50:00,
2013-05-19 08:55:00,26.7,6.2,30.57,West,281,1.0,9.0,41,0.00,,---,0.00,VWS V14.01,2013-05-19 16:55:00,
2013-05-19 09:00:00,26.8,6.8,30.57,WSW,246,2.0,9.0,42,0.00,,---,0.00,VWS V14.01,2013-05-19 17:00:00,
2013-05-19 09:05:00,27.0,6.4,30.57,NW,310,6.0,9.0,41,0.00,,---,0.00,VWS V14.01,2013-05-19 17:05:00,
2013-05-19 09:10:00,27.0,6.4,30.57,WNW,292,0.0,9.0,41,0.00,,---,0.00,VWS V14.01,2013-05-19 17:10:00,
2013-05-19 09:15:00,27.3,6.7,30.57,West,259,2.0,9.0,41,0.00,,---,0.00,VWS V14.01,2013-05-19 17:15:00,
2013-05-19 09:20:00,27.6,7.0,30.58,West,275,0.0,9.0,41,0.00,,---,0.00,VWS V14.01,2013-05-19 17:20:00,
2013-05-19 09:25:00,27.9,6.7,30.58,WNW,285,1.0,9.0,40,0.00,,---,0.00,VWS V14.01,2013-05-19 17:25:00,
2013-05-19 09:30:00,28.3,7.6,30.58,WNW,284,1.0,9.0,41,0.00,,---,0.00,VWS V14.01,2013-05-19 17:30:00,
2013-05-19 09:35:00,28.6,6.8,30.58,West,271,5.0,8.0,39,0.00,,---,0.00,VWS V14.01,2013-05-19 17:35:00,
2013-05-19 09:40:00,28.3,6.5,30.58,WNW,298,2.0,9.0,39,0.00,,---,0.00,VWS V14.01,2013-05-19 17:40:00,
2013-05-19 09:45:00,28.4,7.2,30.58,WNW,292,4.0,9.0,40,0.00,,---,0.00,VWS V14.01,2013-05-19 17:45:00,
2013-05-19 09:50:00,28.5,6.1,30.59,West,271,3.0,9.0,38,0.00,,---,0.00,VWS V14.01,2013-05-19 17:50:00,
2013-05-19 09:55:00,28.5,6.7,30.59,WNW,299,4.0,9.0,39,0.00,,---,0.00,VWS V14.01,2013-05-19 17:55:00,
2013-05-19 10:00:00,28.4,6.1,30.59,West,266,0.0,9.0,38,0.00,,---,0.00,VWS V14.01,2013-05-19 18:00:00,
2013-05-19 10:05:00,28.5,6.7,30.59,WNW,296,1.0,5.0,39,0.00,,---,0.00,VWS V14.01,2013-05-19 18:05:00,
2013-05-19 10:10:00,29.0,7.7,30.59,West,278,0.0,5.0,40,0.00,,---,0.00,VWS V14.01,2013-05-19 18:10:00,
2013-05-19 10:15:00,29.4,6.9,30.59,NW,319,2.0,7.0,38,0.00,,---,0.00,VWS V14.01,2013-05-19 18:15:00,
2013-05-19 10:20:00,29.5,7.0,30.59,WNW,303,1.0,7.0,38,0.00,,---,0.00,VWS V14.01,2013-05-19 18:20:00,
2013-05-19 10:25:00,29.9,7.4,30.59,West,278,3.0,7.0,38,0.00,,---,0.00,VWS V14.01,2013-05-19 18:25:00,
2013-05-19 10:30:00,30.1,7.6,30.60,WSW,241,2.0,7.0,38,0.00,,---,0.00,VWS V14.01,2013-05-19 18:30:00,
2013-05-19 10:35:00,29.9,7.4,30.60,WSW,244,2.0,8.0,38,0.00,,---,0.00,VWS V14.01,2013-05-19 18:35:00,
2013-05-19 10:40:00,30.0,7.5,30.60,NW,305,4.0,11.0,38,0.00,,---,0.00,VWS V14.01,2013-05-19 18:40:00,
2013-05-19 10:45:00,30.4,7.3,30.60,WSW,254,2.0,11.0,37,0.00,,---,0.00,VWS V14.01,2013-05-19 18:45:00,
2013-05-19 10:50:00,30.4,6.0,30.60,SW,236,1.0,11.0,35,0.00,,---,0.00,VWS V14.01,2013-05-19 18:50:00,
2013-05-19 10:55:00,30.5,6.7,30.60,WNW,292,3.0,11.0,36,0.00,,---,0.00,VWS V14.01,2013-05-19 18:55:00,
2013-05-19 11:00:00,30.8,7.0,30.60,West,269,7.0,12.0,36,0.00,,---,0.00,VWS V14.01,2013-05-19 19:00:00,
2013-05-19 11:05:00,31.0,7.2,30.61,WNW,284,2.0,6.0,36,0.00,,---,0.00,VWS V14.01,2013-05-19 19:05:00,
2013-05-19 11:10:00,30.9,7.1,30.60,West,271,4.0,10.0,36,0.00,,---,0.00,VWS V14.01,2013-05-19 19:10:00,
2013-05-19 11:15:00,31.3,6.8,30.61,NW,304,2.0,10.0,35,0.00,,---,0.00,VWS V14.01,2013-05-19 19:15:00,
2013-05-19 11:20:00,31.3,6.8,30.61,WSW,240,2.0,10.0,35,0.00,,---,0.00,VWS V14.01,2013-05-19 19:20:00,
2013-05-19 11:25:00,31.7,9.0,30.61,WSW,238,4.0,10.0,38,0.00,,---,0.00,VWS V14.01,2013-05-19 19:25:00,
2013-05-19 11:30:00,32.3,9.0,30.61,NNW,338,3.0,10.0,37,0.00,,---,0.00,VWS V14.01,2013-05-19 19:30:00,
2013-05-19 11:35:00,32.3,7.7,30.61,West,276,6.0,6.0,35,0.00,,---,0.00,VWS V14.01,2013-05-19 19:35:00,
2013-05-19 11:40:00,31.8,7.3,30.61,West,277,1.0,7.0,35,0.00,,---,0.00,VWS V14.01,2013-05-19 19:40:00,
2013-05-19 11:45:00,32.0,6.8,30.61,WNW,283,3.0,7.0,34,0.00,,---,0.00,VWS V14.01,2013-05-19 19:45:00,
2013-05-19 11:50:00,32.2,7.0,30.61,SW,235,2.0,9.0,34,0.00,,---,0.00,VWS V14.01,2013-05-19 19:50:00,
2013-05-19 11:55:00,32.3,7.1,30.62,WNW,288,1.0,9.0,34,0.00,,---,0.00,VWS V14.01,2013-05-19 19:55:00,
2013-05-19 12:00:00,32.5,6.6,30.62,WNW,284,2.0,9.0,33,0.00,,---,0.00,VWS V14.01,2013-05-19 20:00:00,
2013-05-19 12:05:00,32.6,8.0,30.62,West,269,3.0,5.0,35,0.00,,---,0.00,VWS V14.01,2013-05-19 20:05:00,
2013-05-19 12:10:00,33.2,8.5,30.62,ENE,75,0.0,6.0,35,0.00,,---,0.00,VWS V14.01,2013-05-19 20:10:00,
2013-05-19 12:15:00,33.9,7.2,30.62,WNW,286,0.0,6.0,32,0.00,,---,0.00,VWS V14.01,2013-05-19 20:15:00,
2013-05-19 12:20:00,34.0,7.3,30.62,WSW,237,5.0,6.0,32,0.00,,---,0.00,VWS V14.01,2013-05-19 20:20:00,
2013-05-19 12:25:00,33.9,7.2,30.62,WNW,300,1.0,12.0,32,0.00,,---,0.00,VWS V14.01,2013-05-19 20:25:00,
2013-05-19 12:30:00,33.9,7.2,30.62,WNW,288,1.0,12.0,32,0.00,,---,0.00,VWS V14.01,2013-05-19 20:30:00,
2013-05-19 12:35:00,34.1,5.9,30.63,NW,323,2.0,10.0,30,0.00,,---,0.00,VWS V14.01,2013-05-19 20:35:00,
2013-05-19 12:40:00,34.0,7.3,30.62,WNW,286,4.0,10.0,32,0.00,,---,0.00,VWS V14.01,2013-05-19 20:40:00,
2013-05-19 12:45:00,34.1,6.6,30.62,WNW,283,4.0,10.0,31,0.00,,---,0.00,VWS V14.01,2013-05-19 20:45:00,
2013-05-19 12:50:00,34.5,7.0,30.63,SW,221,5.0,11.0,31,0.00,,---,0.00,VWS V14.01,2013-05-19 20:50:00,
2013-05-19 12:55:00,34.1,6.6,30.62,West,265,3.0,11.0,31,0.00,,---,0.00,VWS V14.01,2013-05-19 20:55:00,
2013-05-19 13:00:00,34.7,7.2,30.62,West,259,0.0,11.0,31,0.00,,---,0.00,VWS V14.01,2013-05-19 21:00:00,
2013-05-19 13:05:00,35.3,7.7,30.63,WSW,249,0.0,5.0,31,0.00,,---,0.00,VWS V14.01,2013-05-19 21:05:00,
2013-05-19 13:10:00,35.1,6.8,30.63,SW,216,2.0,8.0,30,0.00,,---,0.00,VWS V14.01,2013-05-19 21:10:00,
2013-05-19 13:15:00,35.5,8.6,30.63,NW,307,3.0,8.0,32,0.00,,---,0.00,VWS V14.01,2013-05-19 21:15:00,
2013-05-19 13:20:00,35.8,8.1,30.63,NW,323,4.0,8.0,31,0.00,,---,0.00,VWS V14.01,2013-05-19 21:20:00,
2013-05-19 13:25:00,35.5,7.9,30.63,NW,318,2.0,8.0,31,0.00,,---,0.00,VWS V14.01,2013-05-19 21:25:00,
2013-05-19 13:30:00,36.1,9.8,30.63,WNW,297,2.0,8.0,33,0.00,,---,0.00,VWS V14.01,2013-05-19 21:30:00,
2013-05-19 13:35:00,36.2,8.5,30.63,NNW,342,2.0,7.0,31,0.00,,---,0.00,VWS V14.01,2013-05-19 21:35:00,
2013-05-19 13:40:00,36.0,7.6,30.63,SW,224,1.0,10.0,30,0.00,,---,0.00,VWS V14.01,2013-05-19 21:40:00,
2013-05-19 13:44:00,36.0,9.7,30.63,ENE,57,1.0,10.0,33,0.00,,---,0.00,VWS V14.01,2013-05-19 21:44:00,
2013-05-19 13:49:00,36.5,9.5,30.63,NW,310,6.0,10.0,32,0.00,,---,0.00,VWS V14.01,2013-05-19 21:49:00,
2013-05-19 13:54:00,36.5,8.8,30.64,West,274,3.0,10.0,31,0.00,,---,0.00,VWS V14.01,2013-05-19 21:54:00,
2013-05-19 13:59:00,36.8,8.3,30.64,WSW,242,0.0,10.0,30,0.00,,---,0.00,VWS V14.01,2013-05-19 21:59:00,
2013-05-19 14:00:00,28.6,30.2,100.00,North,0,3.0,20.0,78,0.02,,---,0.00,VWS V14.01,2013-05-19 22:00:00,
2013-05-19 14:04:00,37.0,9.9,30.64,West,259,1.0,5.0,32,0.00,,---,0.00,VWS V14.01,2013-05-19 22:04:00,
2013-05-19 14:09:00,37.1,7.8,30.64,SW,228,4.0,10.0,29,0.00,,---,0.00,VWS V14.01,2013-05-19 22:09:00,
2013-05-19 14:14:00,36.6,8.1,30.64,SW,219,8.0,10.0,30,0.00,,---,0.00,VWS V14.01,2013-05-19 22:14:00,
2013-05-19 14:19:00,37.1,8.6,30.64,WSW,250,5.0,10.0,30,0.00,,---,0.00,VWS V14.01,2013-05-19 22:19:00,
2013-05-19 14:24:00,36.7,7.4,30.64,SSW,211,1.0,10.0,29,0.00,,---,0.00,VWS V14.01,2013-05-19 22:24:00,
2013-05-19 14:29:00,37.1,8.6,30.64,NNW,330,6.0,10.0,30,0.00,,---,0.00,VWS V14.01,2013-05-19 22:29:00,
2013-05-19 14:30:00,28.6,30.2,100.00,North,0,1.0,20.0,78,0.02,,---,0.00,VWS V14.01,2013-05-19 22:30:00,
2013-05-19 14:34:00,37.0,8.5,30.64,NW,317,2.0,8.0,30,0.00,,---,0.00,VWS V14.01,2013-05-19 22:34:00,
2013-05-19 14:39:00,37.4,8.8,30.64,NW,319,4.0,8.0,30,0.00,,---,0.00,VWS V14.01,2013-05-19 22:39:00,
2013-05-19 14:44:00,37.5,8.9,30.64,NNW,342,2.0,8.0,30,0.00,,---,0.00,VWS V14.01,2013-05-19 22:44:00,
2013-05-19 14:49:00,38.0,9.3,30.64,West,263,2.0,8.0,30,0.00,,---,0.00,VWS V14.01,2013-05-19 22:49:00,
2013-05-19 14:54:00,38.2,10.2,30.64,SW,229,8.0,8.0,31,0.00,,---,0.00,VWS V14.01,2013-05-19 22:54:00,
2013-05-19 14:59:00,37.9,8.5,30.64,SW,232,2.0,8.0,29,0.00,,---,0.00,VWS V14.01,2013-05-19 22:59:00,
2013-05-19 15:00:00,28.6,30.2,100.00,North,0,1.0,20.0,78,0.02,,---,0.00,VWS V14.01,2013-05-19 23:00:00,
2013-05-19 15:04:00,37.8,9.2,30.64,NW,311,2.0,8.0,30,0.00,,---,0.00,VWS V14.01,2013-05-19 23:04:00,
2013-05-19 15:09:00,37.9,9.2,30.65,WNW,287,0.0,8.0,30,0.00,,---,0.00,VWS V14.01,2013-05-19 23:09:00,
2013-05-19 15:14:00,38.3,8.8,30.65,WNW,294,2.0,8.0,29,0.00,,---,0.00,VWS V14.01,2013-05-19 23:14:00,
2013-05-19 15:19:00,38.6,9.1,30.65,WSW,253,2.0,8.0,29,0.00,,---,0.00,VWS V14.01,2013-05-19 23:19:00,
2013-05-19 15:24:00,39.1,8.8,30.65,WSW,246,1.0,8.0,28,0.00,,---,0.00,VWS V14.01,2013-05-19 23:24:00,
2013-05-19 15:29:00,38.9,9.4,30.65,WSW,240,1.0,8.0,29,0.00,,---,0.00,VWS V14.01,2013-05-19 23:29:00,
2013-05-19 15:30:00,28.6,30.2,100.00,North,0,1.0,20.0,78,0.02,,---,0.00,VWS V14.01,2013-05-19 23:30:00,
2013-05-19 15:34:00,39.1,9.5,30.65,WSW,248,2.0,7.0,29,0.00,,---,0.00,VWS V14.01,2013-05-19 23:34:00,
2013-05-19 15:39:00,39.3,10.5,30.65,NW,304,1.0,8.0,30,0.00,,---,0.00,VWS V14.01,2013-05-19 23:39:00,
2013-05-19 15:44:00,39.5,9.1,30.65,SW,215,2.0,8.0,28,0.00,,---,0.00,VWS V14.01,2013-05-19 23:44:00,
2013-05-19 15:49:00,39.5,9.9,30.65,WNW,292,0.0,8.0,29,0.00,,---,0.00,VWS V14.01,2013-05-19 23:49:00,
2013-05-19 15:54:00,39.7,10.1,30.65,NW,310,1.0,8.0,29,0.00,,---,0.00,VWS V14.01,2013-05-19 23:54:00,
2013-05-19 15:59:00,39.6,10.0,30.65,West,265,3.0,8.0,29,0.00,,---,0.00,VWS V14.01,2013-05-19 23:59:00,
2013-05-19 16:00:00,28.6,30.2,100.00,North,0,4.0,20.0,78,0.02,,---,0.00,VWS V14.01,2013-05-20 00:00:00,
2013-05-19 16:04:00,39.5,9.9,30.65,West,277,2.0,7.0,29,0.00,,---,0.00,VWS V14.01,2013-05-20 00:04:00,
2013-05-19 16:09:00,40.0,10.3,30.65,North,349,1.0,7.0,29,0.00,,---,0.00,VWS V14.01,2013-05-20 00:09:00,
2013-05-19 16:14:00,40.0,9.5,30.65,NE,51,3.0,7.0,28,0.00,,---,0.00,VWS V14.01,2013-05-20 00:14:00,
2013-05-19 16:19:00,39.6,10.0,30.65,NNW,344,3.0,8.0,29,0.00,,---,0.00,VWS V14.01,2013-05-20 00:19:00,
2013-05-19 16:24:00,39.6,10.7,30.65,West,261,3.0,11.0,30,0.00,,---,0.00,VWS V14.01,2013-05-20 00:24:00,
2013-05-19 16:29:00,39.9,11.0,30.65,West,260,0.0,11.0,30,0.00,,---,0.00,VWS V14.01,2013-05-20 00:29:00,
2013-05-19 16:30:00,28.6,30.2,100.00,North,0,2.0,20.0,77,0.02,,---,0.00,VWS V14.01,2013-05-20 00:30:00,
2013-05-19 16:34:00,39.7,9.3,30.65,NNW,333,3.0,5.0,28,0.00,,---,0.00,VWS V14.01,2013-05-20 00:34:00,
2013-05-19 16:39:00,40.0,11.8,30.65,West,279,4.0,8.0,31,0.00,,---,0.00,VWS V14.01,2013-05-20 00:39:00,
2013-05-19 16:44:00,40.0,10.3,30.66,West,263,0.0,8.0,29,0.00,,---,0.00,VWS V14.01,2013-05-20 00:44:00,
2013-05-19 16:49:00,40.0,10.3,30.65,WSW,248,2.0,8.0,29,0.00,,---,0.00,VWS V14.01,2013-05-20 00:49:00,
2013-05-19 16:54:00,39.7,10.1,30.66,WNW,288,4.0,8.0,29,0.00,,---,0.00,VWS V14.01,2013-05-20 00:54:00,
2013-05-19 16:59:00,39.8,11.6,30.66,WSW,245,0.0,8.0,31,0.00,,---,0.00,VWS V14.01,2013-05-20 00:59:00,
2013-05-19 17:00:00,28.6,30.3,100.00,North,0,1.0,20.0,77,0.02,,---,0.00,VWS V14.01,2013-05-20 01:00:00,
2013-05-19 17:04:00,40.6,12.4,30.66,WSW,242,3.0,6.0,31,0.00,,---,0.00,VWS V14.01,2013-05-20 01:04:00,
2013-05-19 17:09:00,40.8,11.0,30.66,West,277,2.0,6.0,29,0.00,,---,0.00,VWS V14.01,2013-05-20 01:09:00,
2013-05-19 17:14:00,41.0,10.4,30.66,NNW,327,0.0,6.0,28,0.00,,---,0.00,VWS V14.01,2013-05-20 01:14:00,
2013-05-19 17:19:00,41.1,11.3,30.66,West,269,0.0,6.0,29,0.00,,---,0.00,VWS V14.01,2013-05-20 01:19:00,
2013-05-19 17:24:00,40.9,11.9,30.66,West,267,3.0,7.0,30,0.00,,---,0.00,VWS V14.01,2013-05-20 01:24:00,
2013-05-19 17:29:00,40.4,11.4,30.66,NW,319,1.0,7.0,30,0.00,,---,0.00,VWS V14.01,2013-05-20 01:29:00,
2013-05-19 17:30:00,28.6,30.3,100.00,North,0,2.0,20.0,77,0.02,,---,0.00,VWS V14.01,2013-05-20 01:30:00,
2013-05-19 17:34:00,40.2,11.3,30.66,WNW,292,1.0,6.0,30,0.00,,---,0.00,VWS V14.01,2013-05-20 01:34:00,
2013-05-19 17:39:00,40.3,12.1,30.66,WNW,292,2.0,6.0,31,0.00,,---,0.00,VWS V14.01,2013-05-20 01:39:00,
2013-05-19 17:44:00,41.0,13.4,30.66,West,271,4.0,8.0,32,0.00,,---,0.00,VWS V14.01,2013-05-20 01:44:00,
2013-05-19 17:49:00,40.8,11.0,30.66,West,281,4.0,8.0,29,0.00,,---,0.00,VWS V14.01,2013-05-20 01:49:00,
2013-05-19 17:54:00,40.4,10.7,30.66,West,275,0.0,8.0,29,0.00,,---,0.00,VWS V14.01,2013-05-20 01:54:00,
2013-05-19 17:59:00,40.1,11.2,30.66,West,266,3.0,8.0,30,0.00,,---,0.00,VWS V14.01,2013-05-20 01:59:00,
2013-05-19 18:00:00,28.6,30.3,100.00,North,0,3.0,20.0,77,0.02,,---,0.00,VWS V14.01,2013-05-20 02:00:00,
2013-05-19 18:04:00,40.1,11.9,30.66,WSW,244,0.0,3.0,31,0.00,,---,0.00,VWS V14.01,2013-05-20 02:04:00,
2013-05-19 18:09:00,40.5,12.3,30.66,NW,320,4.0,6.0,31,0.00,,---,0.00,VWS V14.01,2013-05-20 02:09:00,
2013-05-19 18:14:00,40.6,12.4,30.66,NW,311,2.0,6.0,31,0.00,,---,0.00,VWS V14.01,2013-05-20 02:14:00,
2013-05-19 18:19:00,41.0,12.7,30.66,North,351,0.0,8.0,31,0.00,,---,0.00,VWS V14.01,2013-05-20 02:19:00,
2013-05-19 18:24:00,41.1,12.8,30.66,NW,306,2.0,8.0,31,0.00,,---,0.00,VWS V14.01,2013-05-20 02:24:00,
2013-05-19 18:29:00,41.2,12.9,30.66,North,350,2.0,8.0,31,0.00,,---,0.00,VWS V14.01,2013-05-20 02:29:00,
2013-05-19 18:30:00,28.6,30.3,100.00,North,0,4.0,20.0,77,0.02,,---,0.00,VWS V14.01,2013-05-20 02:30:00,
2013-05-19 18:34:00,41.2,12.1,30.66,WNW,282,0.0,4.0,30,0.00,,---,0.00,VWS V14.01,2013-05-20 02:34:00,
2013-05-19 18:39:00,41.2,12.9,30.66,WSW,242,1.0,4.0,31,0.00,,---,0.00,VWS V14.01,2013-05-20 02:39:00,
2013-05-19 18:44:00,40.9,12.6,30.66,West,275,1.0,6.0,31,0.00,,---,0.00,VWS V14.01,2013-05-20 02:44:00,
2013-05-19 18:49:00,40.8,11.8,30.66,SW,215,4.0,6.0,30,0.00,,---,0.00,VWS V14.01,2013-05-20 02:49:00,
2013-05-19 18:54:00,40.6,12.4,30.66,SW,232,6.0,7.0,31,0.00,,---,0.00,VWS V14.01,2013-05-20 02:54:00,
2013-05-19 18:59:00,40.7,12.4,30.66,WSW,247,0.0,7.0,31,0.00,,---,0.00,VWS V14.01,2013-05-20 02:59:00,
2013-05-19 19:00:00,28.7,30.3,100.00,North,1,3.0,21.0,77,0.02,,---,0.00,VWS V14.01,2013-05-20 03:00:00,
2013-05-19 19:04:00,40.8,11.8,30.66,WNW,300,3.0,8.0,30,0.00,,---,0.00,VWS V14.01,2013-05-20 03:04:00,
2013-05-19 19:09:00,40.7,11.7,30.67,WNW,286,0.0,8.0,30,0.00,,---,0.00,VWS V14.01,2013-05-20 03:09:00,
2013-05-19 19:14:00,40.5,11.5,30.66,WNW,285,1.0,8.0,30,0.00,,---,0.00,VWS V14.01,2013-05-20 03:14:00,
2013-05-19 19:19:00,40.4,12.2,30.66,North,360,0.0,8.0,31,0.00,,---,0.00,VWS V14.01,2013-05-20 03:19:00,
2013-05-19 19:24:00,40.5,12.3,30.66,WSW,241,2.0,8.0,31,0.00,,---,0.00,VWS V14.01,2013-05-20 03:24:00,
2013-05-19 19:29:00,40.5,12.3,30.66,West,271,0.0,8.0,31,0.00,,---,0.00,VWS V14.01,2013-05-20 03:29:00,
2013-05-19 19:30:00,28.7,30.3,100.00,North,1,3.0,20.0,77,0.02,,---,0.00,VWS V14.01,2013-05-20 03:30:00,
2013-05-19 19:34:00,40.6,12.4,30.66,West,260,2.0,4.0,31,0.00,,---,0.00,VWS V14.01,2013-05-20 03:34:00,
2013-05-19 19:39:00,40.4,12.2,30.66,WSW,238,1.0,4.0,31,0.00,,---,0.00,VWS V14.01,2013-05-20 03:39:00,
2013-05-19 19:44:00,40.4,12.2,30.66,NW,318,3.0,5.0,31,0.00,,---,0.00,VWS V14.01,2013-05-20 03:44:00,
2013-05-19 19:49:00,40.3,14.2,30.66,SW,219,0.0,6.0,34,0.00,,---,0.00,VWS V14.01,2013-05-20 03:49:00,
2013-05-19 19:54:00,40.4,12.9,30.66,West,269,3.0,6.0,32,0.00,,---,0.00,VWS V14.01,2013-05-20 03:54:00,
2013-05-19 19:59:00,40.5,13.0,30.66,West,271,1.0,6.0,32,0.00,,---,0.00,VWS V14.01,2013-05-20 03:59:00,
2013-05-19 20:00:00,28.7,30.3,100.00,North,1,8.0,20.0,77,0.02,,---,0.00,VWS V14.01,2013-05-20 04:00:00,
2013-05-19 20:01:00,40.6,13.1,30.66,West,271,0.0,6.0,32,0.00,,---,0.00,VWS V14.01,2013-05-20 04:01:00,
2013-05-19 20:06:00,40.6,13.1,30.66,WSW,238,0.0,3.0,32,0.00,,---,0.00,VWS V14.01,2013-05-20 04:06:00,
2013-05-19 20:11:00,40.7,13.1,30.66,WNW,289,2.0,4.0,32,0.00,,---,0.00,VWS V14.01,2013-05-20 04:11:00,
2013-05-19 20:16:00,40.5,13.7,30.67,WSW,242,0.0,5.0,33,0.00,,---,0.00,VWS V14.01,2013-05-20 04:16:00,
2013-05-19 20:21:00,40.4,13.6,30.67,WSW,242,0.0,5.0,33,0.00,,---,0.00,VWS V14.01,2013-05-20 04:21:00,
2013-05-19 20:26:00,40.4,13.6,30.67,WNW,292,2.0,5.0,33,0.00,,---,0.00,VWS V14.01,2013-05-20 04:26:00,
2013-05-19 20:30:00,28.7,30.3,100.00,North,2,8.0,20.0,77,0.02,,---,0.00,VWS V14.01,2013-05-20 04:30:00,
2013-05-19 20:31:00,40.0,13.2,30.67,WSW,244,0.0,5.0,33,0.00,,---,0.00,VWS V14.01,2013-05-20 04:31:00,
2013-05-19 20:36:00,39.8,14.4,30.67,NW,304,0.0,3.0,35,0.00,,---,0.00,VWS V14.01,2013-05-20 04:36:00,
2013-05-19 20:41:00,39.8,13.1,30.67,West,272,0.0,3.0,33,0.00,,---,0.00,VWS V14.01,2013-05-20 04:41:00,
2013-05-19 20:46:00,39.7,13.0,30.67,WNW,291,0.0,4.0,33,0.00,,---,0.00,VWS V14.01,2013-05-20 04:46:00,
2013-05-19 20:51:00,39.6,12.9,30.67,West,262,0.0,6.0,33,0.00,,---,0.00,VWS V14.01,2013-05-20 04:51:00,
2013-05-19 20:56:00,39.5,12.8,30.67,WSW,246,2.0,6.0,33,0.00,,---,0.00,VWS V14.01,2013-05-20 04:56:00,
2013-05-19 21:00:00,28.7,30.3,100.00,North,1,9.0,20.0,77,0.02,,---,0.00,VWS V14.01,2013-05-20 05:00:00,
2013-05-19 21:01:00,39.4,13.4,30.67,West,281,0.0,6.0,34,0.00,,---,0.00,VWS V14.01,2013-05-20 05:01:00,
2013-05-19 21:06:00,39.2,13.2,30.67,West,275,0.0,3.0,34,0.00,,---,0.00,VWS V14.01,2013-05-20 05:06:00,
2013-05-19 21:11:00,39.3,13.3,30.67,WNW,282,2.0,4.0,34,0.00,,---,0.00,VWS V14.01,2013-05-20 05:11:00,
2013-05-19 21:16:00,39.2,13.2,30.67,WSW,253,1.0,4.0,34,0.00,,---,0.00,VWS V14.01,2013-05-20 05:16:00,
2013-05-19 21:21:00,39.1,13.8,30.67,West,279,3.0,4.0,35,0.00,,---,0.00,VWS V14.01,2013-05-20 05:21:00,
2013-05-19 21:26:00,39.0,13.7,30.67,West,259,0.0,4.0,35,0.00,,---,0.00,VWS V14.01,2013-05-20 05:26:00,
2013-05-19 21:30:00,28.7,30.3,100.00,North,3,10.0,20.0,77,0.02,,---,0.00,VWS V14.01,2013-05-20 05:30:00,
2013-05-19 21:31:00,38.9,13.6,30.68,WSW,250,0.0,5.0,35,0.00,,---,0.00,VWS V14.01,2013-05-20 05:31:00,
2013-05-19 21:36:00,38.8,13.5,30.67,WSW,250,0.0,2.0,35,0.00,,---,0.00,VWS V14.01,2013-05-20 05:36:00,
2013-05-19 21:41:00,38.5,13.9,30.68,West,275,0.0,2.0,36,0.00,,---,0.00,VWS V14.01,2013-05-20 05:41:00,
2013-05-19 21:46:00,38.3,14.3,30.68,WNW,301,0.0,5.0,37,0.00,,---,0.00,VWS V14.01,2013-05-20 05:46:00,
2013-05-19 21:51:00,38.2,13.6,30.68,West,263,0.0,6.0,36,0.00,,---,0.00,VWS V14.01,2013-05-20 05:51:00,
2013-05-19 21:56:00,38.0,14.1,30.68,West,265,0.0,6.0,37,0.00,,---,0.00,VWS V14.01,2013-05-20 05:56:00,
2013-05-19 22:00:00,28.7,30.3,100.00,North,3,10.0,20.0,77,0.02,,---,0.00,VWS V14.01,2013-05-20 06:00:00,
2013-05-19 22:01:00,37.9,14.0,30.68,West,262,0.0,6.0,37,0.00,,---,0.00,VWS V14.01,2013-05-20 06:01:00,
2013-05-19 22:06:00,37.8,13.9,30.68,West,278,0.0,4.0,37,0.00,,---,0.00,VWS V14.01,2013-05-20 06:06:00,
2013-05-19 22:11:00,37.6,13.7,30.69,WSW,256,2.0,4.0,37,0.00,,---,0.00,VWS V14.01,2013-05-20 06:11:00,
2013-05-19 22:16:00,37.5,14.2,30.68,West,264,0.0,4.0,38,0.00,,---,0.00,VWS V14.01,2013-05-20 06:16:00,
2013-05-19 22:21:00,37.3,14.0,30.68,West,280,1.0,4.0,38,0.00,,---,0.00,VWS V14.01,2013-05-20 06:21:00,
2013-05-19 22:26:00,37.3,14.0,30.69,West,280,0.0,4.0,38,0.00,,---,0.00,VWS V14.01,2013-05-20 06:26:00,
2013-05-19 22:30:00,28.7,30.3,100.00,North,1,8.0,20.0,77,0.02,,---,0.00,VWS V14.01,2013-05-20 06:30:00,
2013-05-19 22:31:00,37.1,13.9,30.69,West,280,1.0,4.0,38,0.00,,---,0.00,VWS V14.01,2013-05-20 06:31:00,
2013-05-19 22:36:00,37.0,13.8,30.69,West,280,0.0,1.0,38,0.00,,---,0.00,VWS V14.01,2013-05-20 06:36:00,
2013-05-19 22:41:00,36.8,13.6,30.69,West,280,0.0,2.0,38,0.00,,---,0.00,VWS V14.01,2013-05-20 06:41:00,
2013-05-19 22:46:00,36.6,14.0,30.69,West,280,1.0,2.0,39,0.00,,---,0.00,VWS V14.01,2013-05-20 06:46:00,
2013-05-19 22:51:00,36.5,13.9,30.69,West,280,0.0,2.0,39,0.00,,---,0.00,VWS V14.01,2013-05-20 06:51:00,
2013-05-19 22:56:00,36.4,13.8,30.69,West,280,0.0,3.0,39,0.00,,---,0.00,VWS V14.01,2013-05-20 06:56:00,
2013-05-19 23:00:00,28.7,30.3,100.00,North,2,8.0,20.0,77,0.02,,---,0.00,VWS V14.01,2013-05-20 07:00:00,
2013-05-19 23:01:00,36.3,13.7,30.70,West,260,1.0,3.0,39,0.00,,---,0.00,VWS V14.01,2013-05-20 07:01:00,
2013-05-19 23:06:00,36.1,13.6,30.70,West,260,0.0,1.0,39,0.00,,---,0.00,VWS V14.01,2013-05-20 07:06:00,
2013-05-19 23:11:00,35.9,13.9,30.70,WSW,251,0.0,3.0,40,0.00,,---,0.00,VWS V14.01,2013-05-20 07:11:00,
2013-05-19 23:16:00,35.7,13.8,30.70,WNW,284,1.0,3.0,40,0.00,,---,0.00,VWS V14.01,2013-05-20 07:16:00,
2013-05-19 23:21:00,35.6,13.7,30.70,WNW,284,0.0,3.0,40,0.00,,---,0.00,VWS V14.01,2013-05-20 07:21:00,
2013-05-19 23:26:00,35.5,13.6,30.70,WNW,284,0.0,3.0,40,0.00,,---,0.00,VWS V14.01,2013-05-20 07:26:00,
2013-05-19 23:30:00,28.7,30.3,100.00,North,2,8.0,20.0,77,0.02,,---,0.00,VWS V14.01,2013-05-20 07:30:00,
2013-05-19 23:31:00,35.4,14.1,30.70,WNW,284,0.0,3.0,41,0.00,,---,0.00,VWS V14.01,2013-05-20 07:31:00,
2013-05-19 23:36:00,35.3,13.4,30.70,WNW,284,0.0,2.0,40,0.00,,---,0.00,VWS V14.01,2013-05-20 07:36:00,
2013-05-19 23:41:00,35.3,13.4,30.70,West,267,0.0,3.0,40,0.00,,---,0.00,VWS V14.01,2013-05-20 07:41:00,
2013-05-19 23:46:00,35.4,13.5,30.70,WSW,250,0.0,3.0,40,0.00,,---,0.00,VWS V14.01,2013-05-20 07:46:00,
2013-05-19 23:51:00,35.4,13.5,30.70,WSW,244,1.0,3.0,40,0.00,,---,0.00,VWS V14.01,2013-05-20 07:51:00,
2013-05-19 23:56:00,35.4,13.5,30.71,WSW,244,0.0,3.0,40,0.00,,---,0.00,VWS V14.01,2013-05-20 07:56:00,